[[{"header":{"parameterUnit":"m.s-1","parameterCategory":1,"la1":30.2991,"la2":30.254,"lo1":-89.0895,"lo2":-89.0444,"dy":0.0017,"dx":0.0017,"nx":28,"ny":28,"refTime":"2023-09-26T03:00:00:Z","depth":0,"parameterNumber":2,"parameterNumberName":"U-component_of_WINDS"},"data":[0,0,0,0,0,0,0,0,0,0,0,0,0,0,0,0,0,0,0,0,0,0,0,0,0,0,0,0,0,0,0,0,0,0,0,0,0,0,0,0,0,0,0,0,0,0,0,0,0,0,0,0,0,0,0,0,0,0,-1.5871,-1.5872,0,-1.5911,-1.5911,-1.5911,-1.587,-1.5869,-1.5867,-1.5866,-1.5907,-1.591,-1.5912,0,0,0,0,0,0,0,0,0,0,0,0,0,-1.5764,-1.5766,-1.5871,-1.5872,-1.5872,-1.591,-1.5911,-1.5912,-1.5871,-1.5869,-1.5867,-1.5865,-1.5906,-1.5909,-1.5912,0,0,0,0,0,0,0,0,0,0,0,0,0,-1.5808,-1.5767,-1.5871,-1.5856,-1.5856,-1.591,-1.5911,-1.5912,-1.5871,-1.5869,-1.5866,-1.5864,-1.5905,-1.5909,-1.5913,-1.5985,0,0,-1.5925,-1.5926,0,0,0,0,0,0,0,0,-1.5805,-1.5812,-1.5858,-1.5858,-1.5857,-1.5883,-1.5888,-1.5936,-1.5872,-1.5865,-1.5866,-1.5863,-1.5901,-1.5905,-1.5918,-1.5987,-1.5988,-1.5925,-1.5927,-1.5929,-1.593,0,0,0,0,0,0,0,-1.5802,-1.581,-1.5887,-1.5859,-1.5858,-1.5849,-1.5852,-1.5897,-1.5896,-1.5866,-1.5863,-1.5868,-1.59,-1.5914,-1.5918,-1.5989,-1.5925,-1.5928,-1.5931,-1.5932,-1.612,-1.6123,0,0,0,0,0,0,-1.5801,-1.5807,-1.5886,-1.5888,-1.5824,-1.5853,-1.5857,-1.5877,-1.5895,-1.5896,-1.587,-1.5866,-1.5909,-1.5914,-1.592,-1.6006,-1.5929,-1.5933,-1.5935,-1.6118,-1.6121,-1.6124,0,0,0,0,0,0,-1.5798,-1.5808,-1.5884,-1.5847,-1.5856,-1.5857,-1.588,-1.5879,-1.5893,-1.5899,-1.5898,-1.5884,-1.5907,-1.5914,-1.5969,-1.6007,-1.5934,-1.5938,-1.6115,-1.6119,-1.6122,-1.6178,0,0,0,0,0,0,-1.5795,-1.5807,-1.5834,-1.5848,-1.5858,-1.5932,-1.5883,-1.5882,-1.5899,-1.5895,-1.5912,-1.5913,-1.5906,-1.5964,-1.5973,-1.6011,-1.5941,-1.6111,-1.6116,-1.6121,-1.6173,-1.6183,-1.6192,0,0,0,0,0,-1.5792,-1.5848,-1.5835,-1.5845,-1.5891,-1.5934,-1.594,-1.5931,-1.5903,-1.593,-1.5934,-1.5912,-1.6001,-1.5969,-1.598,-1.6019,-1.6109,-1.6115,-1.6121,-1.6168,-1.6181,-1.6192,0,0,0,0,0,0,-1.5838,-1.5849,-1.5836,-1.5898,-1.5915,-1.5927,-1.5961,-1.5944,-1.597,-1.5965,-1.5953,-1.5957,-1.6015,-1.6023,-1.5987,-1.6091,-1.6051,-1.6059,-1.6083,-1.6095,-1.6105,-1.6102,-1.5944,0,0,0,0,0,-1.5856,-1.5889,-1.5897,-1.5952,-1.5961,-1.596,-1.5978,-1.5969,-1.5987,-1.5995,-1.6002,-1.6021,-1.6054,-1.6075,-1.6105,-1.6174,-1.6178,-1.6206,-1.6216,-1.6224,-1.6231,-1.627,-1.6283,-1.6144,-1.6143,-1.6143,0,0,-1.5892,-1.5903,-1.5924,-1.5961,-1.5974,-1.6009,-1.5966,-1.6005,-1.6032,-1.6001,-1.6053,-1.606,-1.608,-1.6142,-1.617,-1.615,-1.6271,-1.6232,-1.6238,-1.6241,-1.6277,-1.6291,-1.6302,-1.6148,-1.6147,-1.6146,0,0,-1.5977,-1.5988,-1.6034,-1.6048,-1.6068,-1.6067,-1.6078,-1.6093,-1.6096,-1.6148,-1.6126,-1.6158,-1.6214,-1.6229,-1.6245,-1.6338,-1.6319,-1.6348,-1.6399,-1.6437,-1.6448,-1.6457,-1.6491,-1.6503,-1.6355,-1.6355,-1.6356,0,-1.602,-1.6071,-1.606,-1.6102,-1.6119,-1.6093,-1.6141,-1.6155,-1.6184,-1.6197,-1.6174,-1.6244,-1.6256,-1.6322,-1.6345,-1.6359,-1.6372,-1.6345,-1.6447,-1.6456,-1.6465,-1.6497,-1.651,-1.6359,-1.6358,-1.6358,-1.6358,0,-1.6124,-1.616,-1.6196,-1.6224,-1.6246,-1.629,-1.6287,-1.631,-1.6301,-1.6302,-1.6357,-1.637,-1.6403,-1.6419,-1.6409,-1.6484,-1.6472,-1.6448,-1.6408,-1.6482,-1.6512,-1.6524,-1.6364,-1.6363,-1.6361,-1.6361,0,0,-1.6237,-1.626,-1.6273,-1.6286,-1.6307,-1.6335,-1.6379,-1.6411,-1.6432,-1.6453,-1.649,-1.6539,-1.6518,-1.6536,-1.6528,-1.6562,-1.6635,-1.6534,-1.6535,-1.6553,-1.672,-1.6737,-1.6752,-1.6624,-1.6626,-1.6628,-1.6719,0,-1.6322,-1.6397,-1.639,-1.6462,-1.6496,-1.6473,-1.6511,-1.6529,-1.6532,-1.6563,-1.6567,-1.6602,-1.6571,-1.6582,-1.6614,-1.662,-1.6669,-1.6613,-1.6659,-1.6661,-1.6654,-1.6767,-1.6785,-1.687,-1.673,-1.6732,-1.6733,0,-1.6431,-1.6456,-1.6531,-1.6548,-1.6562,-1.6597,-1.6626,-1.6656,-1.6676,-1.6676,-1.6697,-1.6684,-1.673,-1.669,-1.6753,-1.6716,-1.6734,-1.674,-1.6743,-1.6747,-1.6701,-1.6774,-1.6897,-1.691,-1.6752,-1.675,-1.6749,0,-1.6506,-1.6559,-1.6611,-1.6623,-1.6644,-1.6669,-1.6679,-1.6697,-1.6717,-1.6743,-1.6757,-1.6788,-1.6806,-1.6831,-1.6828,-1.6799,-1.6893,-1.6852,-1.6896,-1.6896,-1.6916,-1.6915,-1.7044,-1.6929,-1.6928,-1.6928,-1.6928,0,-1.6602,-1.6649,-1.6646,-1.6678,-1.6731,-1.6722,-1.6775,-1.6782,-1.6799,-1.6833,-1.6815,-1.6848,-1.6842,-1.6875,-1.6873,-1.6927,-1.6935,-1.6937,-1.6936,-1.6939,-1.6938,-1.695,-1.6944,-1.6932,-1.6931,-1.693,-1.693,0,-1.6694,-1.6694,-1.6749,-1.6765,-1.677,-1.6808,-1.6822,-1.6853,-1.6856,-1.6899,-1.6909,-1.6914,-1.6952,-1.6952,-1.6996,-1.6995,-1.706,-1.7053,-1.7053,-1.7052,-1.7096,-1.7092,-1.7237,-1.7256,-1.7128,-1.7129,-1.713,0,-1.6755,-1.6791,-1.6811,-1.6832,-1.6843,-1.6878,-1.6898,-1.6892,-1.6915,-1.6942,-1.697,-1.7007,-1.7035,-1.7098,-1.7106,-1.714,-1.7133,-1.7182,-1.7138,-1.714,-1.7134,-1.7132,-1.7136,-1.719,-1.7191,-1.7192,-1.7193,0,-1.6863,-1.6862,-1.6892,-1.6923,-1.6948,-1.6972,-1.6994,-1.7012,-1.7009,-1.7036,-1.7074,-1.7097,-1.7142,-1.7179,-1.7212,-1.7223,-1.7209,-1.7207,-1.7219,-1.7222,-1.7221,-1.7223,-1.7077,-1.7204,-1.7203,-1.7202,-1.7201,-1.7201,-1.6942,-1.6973,-1.6992,-1.7027,-1.7043,-1.7064,-1.7094,-1.7101,-1.7133,-1.7169,-1.7164,-1.7207,-1.7229,-1.7272,-1.7286,-1.7321,-1.7304,-1.7322,-1.7326,-1.733,-1.7335,-1.7216,-1.7327,-1.7327,-1.7327,-1.7326,-1.7326,0,-1.705,-1.7061,-1.7093,-1.7124,-1.7152,-1.7135,-1.7159,-1.7184,-1.7222,-1.7243,-1.7272,-1.7317,-1.7354,-1.7365,-1.7401,-1.7427,-1.7421,-1.7437,-1.7435,-1.7438,-1.7348,-1.7334,-1.7441,-1.7441,-1.7441,-1.7441,-1.7441,-1.7441,-1.7109,-1.7161,-1.7162,-1.7222,-1.7234,-1.7275,-1.7291,-1.7311,-1.7328,-1.7379,-1.7409,-1.7416,-1.7434,-1.7471,-1.7504,-1.7507,-1.7521,-1.754,-1.754,-1.7455,-1.7444,-1.7433,-1.742,-1.7543,-1.7543,-1.7626,-1.7627,-1.7628]},{"header":{"parameterUnit":"m.s-1","parameterCategory":1,"la1":30.2991,"la2":30.254,"lo1":-89.0895,"lo2":-89.0444,"dy":0.0017,"dx":0.0017,"nx":28,"ny":28,"refTime":"2023-09-26T03:00:00:Z","depth":0,"parameterNumber":3,"parameterNumberName":"V-component_of_WINDS"},"data":[0,0,0,0,0,0,0,0,0,0,0,0,0,0,0,0,0,0,0,0,0,0,0,0,0,0,0,0,0,0,0,0,0,0,0,0,0,0,0,0,0,0,0,0,0,0,0,0,0,0,0,0,0,0,0,0,0,0,3.3556,3.3556,0,3.3596,3.3597,3.3597,3.3673,3.3674,3.3676,3.3677,3.3715,3.3714,3.3714,0,0,0,0,0,0,0,0,0,0,0,0,0,3.3541,3.3541,3.3556,3.3556,3.3557,3.3596,3.3597,3.3597,3.3673,3.3675,3.3676,3.3678,3.3715,3.3714,3.3714,0,0,0,0,0,0,0,0,0,0,0,0,0,3.3561,3.3541,3.3556,3.3599,3.3604,3.3596,3.3597,3.3597,3.3672,3.3675,3.3677,3.3679,3.3715,3.3715,3.3714,3.3666,0,0,3.3712,3.3712,0,0,0,0,0,0,0,0,3.356,3.3561,3.3592,3.3596,3.3601,3.3632,3.3605,3.362,3.3672,3.3646,3.3677,3.368,3.3685,3.3687,3.369,3.3667,3.3669,3.3712,3.3712,3.3711,3.3711,0,0,0,0,0,0,0,3.3558,3.356,3.3572,3.3593,3.3598,3.3616,3.3621,3.3608,3.3652,3.3649,3.3654,3.3658,3.3688,3.369,3.3691,3.367,3.3712,3.3712,3.3711,3.3711,3.3609,3.3607,0,0,0,0,0,0,3.3551,3.3558,3.357,3.3573,3.3586,3.3614,3.362,3.362,3.3653,3.366,3.3656,3.3662,3.369,3.3692,3.3693,3.3638,3.3711,3.3711,3.3711,3.3612,3.3609,3.3606,0,0,0,0,0,0,3.355,3.3551,3.3569,3.3567,3.3571,3.3612,3.3611,3.3619,3.3622,3.3659,3.3667,3.365,3.3692,3.3694,3.3672,3.364,3.3711,3.371,3.3614,3.3611,3.3608,3.3528,0,0,0,0,0,0,3.355,3.3551,3.3533,3.3566,3.3571,3.3548,3.3609,3.3618,3.3621,3.3628,3.3655,3.3662,3.3694,3.3672,3.3671,3.3641,3.371,3.3617,3.3613,3.3609,3.3534,3.3522,3.3513,0,0,0,0,0,3.3549,3.3509,3.3532,3.3533,3.355,3.3546,3.3548,3.3587,3.3618,3.36,3.3624,3.3661,3.3644,3.367,3.3669,3.3638,3.362,3.3614,3.3609,3.3538,3.3525,3.3513,0,0,0,0,0,0,3.3469,3.3514,3.354,3.351,3.3524,3.3559,3.3538,3.3571,3.3575,3.3582,3.3628,3.3634,3.3606,3.362,3.3647,3.3593,3.3638,3.3632,3.3584,3.3571,3.3561,3.3557,3.3709,0,0,0,0,0,3.3449,3.3443,3.3482,3.3451,3.3457,3.3496,3.3496,3.3524,3.354,3.3546,3.3568,3.3581,3.3579,3.3576,3.3576,3.3537,3.3543,3.3515,3.3504,3.3495,3.3489,3.3469,3.3457,3.3589,3.3589,3.3589,0,0,3.3405,3.3429,3.3422,3.3435,3.345,3.3441,3.35,3.3489,3.3483,3.3544,3.3525,3.3542,3.3559,3.3528,3.3516,3.3539,3.3455,3.3489,3.3481,3.348,3.3462,3.345,3.3439,3.3585,3.3586,3.3587,0,0,3.3321,3.3339,3.3315,3.3328,3.335,3.3376,3.3371,3.3401,3.3415,3.3397,3.3442,3.3436,3.3431,3.3441,3.3446,3.3367,3.34,3.3365,3.3309,3.3289,3.3279,3.327,3.324,3.323,3.336,3.336,3.3359,0,3.3264,3.3254,3.3298,3.3285,3.3289,3.3345,3.3321,3.3331,3.335,3.3352,3.3378,3.3373,3.3389,3.3361,3.3342,3.3344,3.3338,3.3362,3.3277,3.3268,3.326,3.3233,3.3222,3.3355,3.3356,3.3356,3.3356,0,3.3182,3.3175,3.3153,3.3172,3.3174,3.3155,3.3195,3.3191,3.322,3.3243,3.3224,3.3245,3.325,3.3246,3.3273,3.3222,3.3236,3.3269,3.3315,3.3243,3.3218,3.3208,3.3349,3.335,3.3352,3.3353,0,0,3.3048,3.3093,3.3084,3.3093,3.3121,3.3116,3.3099,3.3105,3.3101,3.3113,3.3099,3.3094,3.3125,3.313,3.3159,3.3141,3.3076,3.3177,3.3178,3.3156,3.302,3.2994,3.2981,3.3099,3.3098,3.3096,3.3018,0,3.297,3.2945,3.2984,3.2949,3.2943,3.2996,3.2982,3.2996,3.3018,3.3015,3.3038,3.3034,3.3075,3.3079,3.3064,3.3087,3.3049,3.3094,3.3086,3.3085,3.3078,3.2969,3.2941,3.2866,3.3009,3.3007,3.3006,0,3.2874,3.2883,3.2848,3.2878,3.2877,3.2863,3.2872,3.2869,3.2886,3.2903,3.291,3.2945,3.2929,3.2975,3.2953,3.2982,3.2982,3.2993,3.2991,3.299,3.304,3.2964,3.2844,3.2832,3.2991,3.2992,3.2994,0,3.2779,3.2781,3.2761,3.2767,3.2802,3.2791,3.2805,3.2826,3.2827,3.2834,3.2836,3.2841,3.2843,3.2846,3.288,3.2911,3.2854,3.2903,3.2867,3.2866,3.2852,3.2852,3.2728,3.2853,3.2853,3.2853,3.2853,0,3.2686,3.2662,3.2719,3.2706,3.268,3.2726,3.2699,3.2718,3.2736,3.2727,3.2773,3.2764,3.2811,3.2806,3.2833,3.2811,3.2812,3.2824,3.2831,3.2819,3.2818,3.2819,3.2824,3.285,3.2851,3.2851,3.2852,0,3.2575,3.2612,3.2593,3.2628,3.2636,3.2616,3.2646,3.2635,3.266,3.2648,3.2648,3.2686,3.2683,3.2719,3.2722,3.274,3.2705,3.2722,3.2699,3.2704,3.2665,3.2668,3.2537,3.2522,3.2657,3.2655,3.2654,0,3.2512,3.2496,3.253,3.2528,3.254,3.2536,3.2538,3.2582,3.2582,3.2601,3.2587,3.2588,3.2591,3.2583,3.2611,3.2613,3.263,3.2584,3.263,3.2619,3.2628,3.2628,3.2626,3.2573,3.2572,3.257,3.2569,0,3.2398,3.2418,3.242,3.2428,3.2429,3.2437,3.2448,3.2444,3.2491,3.2489,3.2487,3.2489,3.2493,3.2493,3.2501,3.2514,3.2549,3.2555,3.2546,3.2533,3.2521,3.2526,3.2671,3.2557,3.2558,3.2559,3.256,3.256,3.2309,3.2297,3.2319,3.2319,3.2333,3.2342,3.2334,3.2358,3.2358,3.2365,3.2391,3.2384,3.2402,3.2417,3.2427,3.2421,3.2444,3.2432,3.2429,3.2425,3.2417,3.2522,3.2423,3.2424,3.2424,3.2424,3.2425,0,3.2196,3.2214,3.2214,3.2229,3.2229,3.2264,3.2278,3.2275,3.2269,3.2284,3.2286,3.2284,3.2284,3.2312,3.2315,3.2305,3.2321,3.2305,3.2305,3.2307,3.2398,3.2404,3.2291,3.2292,3.2292,3.2292,3.2292,3.2292,3.2138,3.2119,3.2141,3.2128,3.2146,3.214,3.2145,3.2154,3.2166,3.2161,3.2162,3.2181,3.2201,3.2206,3.2208,3.2216,3.2214,3.2192,3.2205,3.2288,3.2301,3.2313,3.232,3.2191,3.2191,3.2115,3.2115,3.2114]}]]